Miscellaneous Local Product
Issued by NWS Hastings, NE

Home | Current Version | Previous Version | Graphics & Text | Print | Product List | Glossary On
Versions: 1 2 3 4 5 6 7 8 9 10 11 12 13 14 15 16 17 18 19 20 21 22 23 24 25 26 27 28 29 30 31 32 33 34 35 36 37 38 39 40 41 42 43 44 45 46 47 48 49 50
629
AXUS43 KGID 091102
MISGRI

GID CWA HOURLY WEATHER ROUNDUP
NATIONAL WEATHER SERVICE HASTINGS NE
500 AM CST TUE FEB 09 2016

NOTE: "FAIR" INDICATES FEW OR NO CLOUDS BELOW 12,000 FEET WITH NO
SIGNIFICANT WEATHER AND/OR OBSTRUCTIONS TO VISIBILITY.

...SOUTH CENTRAL NEBRASKA...

CITY           SKY/WX    TMP DP  RH WIND       PRES   REMARKS
GRAND ISLAND   CLEAR     20  12  71 N12       30.20R WCI   8
HASTINGS       PTCLDY    23  16  74 N15       30.19R WCI  10
ORD            MOCLDY    23  16  74 N14G24    30.18R WCI  11
YORK           CLEAR     21  12  68 N12       30.17R WCI   9
AURORA         CLEAR     21  13  70 N14       30.18R WCI   8
LEXINGTON      CLOUDY    27  17  68 NW7       30.18S WCI  19
HOLDREGE       CLOUDY    26  18  71 NW8       30.18R WCI  17
HEBRON         CLEAR     25  18  76 N10       30.18R WCI  15

...NEBRASKA PANHANDLE...

CITY           SKY/WX    TMP DP  RH WIND       PRES   REMARKS
CHADRON        CLEAR     31  25  78 NW10      30.23S WCI  22
ALLIANCE       CLEAR     28  23  81 W13       30.19R WCI  17
SCOTTSBLUFF    CLEAR     31  24  75 NW14      30.24R WCI  21
SIDNEY         CLEAR     32  25  75 NW17      30.21S WCI  21

...WESTERN AND NORTH CENTRAL NEBRASKA...

CITY           SKY/WX    TMP DP  RH WIND       PRES   REMARKS
VALENTINE      CLOUDY    27  17  66 N8        30.22S WCI  19
AINSWORTH      CLOUDY    26  18  71 N14G20    30.20F WCI  15
ONEILL         CLOUDY    21  11  66 N14G22    30.18F WCI   8
BROKEN BOW     CLOUDY    28  18  66 N16       30.16R WCI  16
IMPERIAL       CLOUDY    31  24  75 NW10      30.20S WCI  22
NORTH PLATTE   CLOUDY    25  17  72 NW8       30.20R WCI  16
MCCOOK         MOCLDY    28  19  69 W12       30.21S WCI  18

...EASTERN NEBRASKA...

CITY           SKY/WX    TMP DP  RH WIND       PRES   REMARKS
NORFOLK        PTCLDY    17   7  64 NW18G26   30.17R WCI   1
SO SIOUX CITY  PTCLDY    14   4  64 N24G30    30.17R WCI  -5
TEKAMAH        PTCLDY    15   6  67 N17       30.17R WCI  -1
COLUMBUS       CLEAR     18   3  53 NW18G25   30.17F WCI   2
ALBION         CLOUDY    19  10  66 N10G21    30.16S WCI   8
OMAHA EPPLEY   PTCLDY    15   8  73 N14       30.15R WCI   0
OFFUTT AFB     CLEAR     16   9  73 N14G25    30.14R WCI   1
MILLARD        CLEAR     19   8  62 NW12G20   30.15R WCI   7
LINCOLN        CLEAR     21  10  62 N17       30.17R WCI   7
NEBRASKA CITY  PTCLDY    20   9  62 N23G29    30.11R WCI   3
BEATRICE       CLEAR     23  12  63 N20       30.16R WCI   8
FALLS CITY     CLEAR     22  10  60 NW14G24   30.11R WCI   9

...NORTHERN KANSAS...

CITY           SKY/WX    TMP DP  RH WIND       PRES   REMARKS
GOODLAND       CLOUDY    22  18  85 NW8       30.21S WCI  12
HILL CITY      MOCLDY    32  22  66 W6        30.21S WCI  26
NORTON         CLOUDY    30  19  64 NW12      30.20R WCI  21
PHILLIPSBURG   CLOUDY    32  23  69 CALM      30.22R
SMITH CENTER   CLOUDY    28  19  69 NW14      30.21R WCI  17
BELOIT         PTCLDY    27  18  69 NW9       30.19R WCI  17
HAYS           CLOUDY    36  18  48 NW12      30.20R WCI  27
RUSSELL        CLOUDY    31  23  72 NW9       30.18S WCI  23
CONCORDIA      CLEAR     27  17  66 NW12      30.18R WCI  17
SALINA         CLEAR     31  17  56 NW13      30.19R WCI  21
TOPEKA         CLEAR     28  10  46 NW17      30.12R WCI  16



USA.gov is the U.S. government's official web portal to all federal, state and local government web resources and services.